Time,TemperatureF,DewpointF,PressureIn,WindDirection,WindDirectionDegrees,WindSpeedMPH,WindSpeedGustMPH,Humidity,HourlyPrecipIn,Conditions,Clouds,dailyrainin,SoftwareType,DateUTC
2013-01-31 00:00:00,51.8,46.8,29.12,SW,233,16.0,30.0,83,0.07,,,-99.99,Weather View 32 v70,2013-01-31 05:00:00,
2013-01-31 00:05:00,50.4,45.1,29.13,WSW,242,26.0,31.0,82,0.07,,,-99.99,Weather View 32 v70,2013-01-31 05:05:00,
2013-01-31 00:10:00,48.8,43.2,29.14,West,271,16.0,31.0,81,0.06,,,-99.99,Weather View 32 v70,2013-01-31 05:10:00,
2013-01-31 00:15:00,47.1,41.6,29.15,SW,231,8.0,31.0,81,0.07,,,-99.99,Weather View 32 v70,2013-01-31 05:15:00,
2013-01-31 00:20:00,46.3,40.8,29.15,SW,231,7.0,31.0,81,0.06,,,-99.99,Weather View 32 v70,2013-01-31 05:20:00,
2013-01-31 00:30:00,45.3,39.8,29.17,SW,226,29.0,31.0,81,0.07,,,-99.99,Weather View 32 v70,2013-01-31 05:30:00,
2013-01-31 00:34:00,45.3,39.8,29.17,SW,226,29.0,31.0,81,0.07,,,-99.99,Weather View 32 v70,2013-01-31 05:34:00,
2013-01-31 00:40:00,44.4,38.6,29.18,SW,228,16.0,31.0,80,0.07,,,-99.99,Weather View 32 v70,2013-01-31 05:40:00,
2013-01-31 00:45:00,44.2,38.1,29.19,SW,215,13.0,31.0,79,0.08,,,-99.99,Weather View 32 v70,2013-01-31 05:45:00,
2013-01-31 00:50:00,44.0,37.9,29.19,SW,224,13.0,31.0,79,0.08,,,-99.99,Weather View 32 v70,2013-01-31 05:50:00,
2013-01-31 01:00:00,43.3,36.9,29.17,SW,219,12.0,31.0,78,0.04,,,-99.99,Weather View 32 v70,2013-01-31 06:00:00,
2013-01-31 01:05:00,43.2,36.8,29.16,SW,219,11.0,30.0,78,0.03,,,-99.99,Weather View 32 v70,2013-01-31 06:05:00,
2013-01-31 01:10:00,42.8,36.4,29.16,SW,232,12.0,30.0,78,0.03,,,-99.99,Weather View 32 v70,2013-01-31 06:10:00,
2013-01-31 01:20:00,42.2,35.8,29.16,WSW,237,9.0,29.0,78,0.03,,,-99.99,Weather View 32 v70,2013-01-31 06:20:00,
2013-01-31 01:25:00,41.9,35.5,29.18,SW,226,14.0,29.0,78,0.02,,,-99.99,Weather View 32 v70,2013-01-31 06:25:00,
2013-01-31 01:30:00,41.7,35.7,29.19,WSW,241,12.0,29.0,79,0.03,,,-99.99,Weather View 32 v70,2013-01-31 06:30:00,
2013-01-31 01:35:00,41.5,35.5,29.18,SW,234,18.0,28.0,79,0.03,,,-99.99,Weather View 32 v70,2013-01-31 06:35:00,
2013-01-31 01:40:00,41.2,35.2,29.19,SW,225,16.0,29.0,79,0.03,,,-99.99,Weather View 32 v70,2013-01-31 06:40:00,
2013-01-31 01:50:00,40.7,34.7,29.20,SW,226,10.0,29.0,79,0.02,,,-99.99,Weather View 32 v70,2013-01-31 06:50:00,
2013-01-31 01:55:00,40.6,34.6,29.20,SW,235,12.0,29.0,79,0.02,,,-99.99,Weather View 32 v70,2013-01-31 06:55:00,
2013-01-31 02:00:00,40.5,34.5,29.19,SW,221,12.0,29.0,79,0.02,,,-99.99,Weather View 32 v70,2013-01-31 07:00:00,
2013-01-31 02:10:00,39.9,33.6,29.19,SW,224,22.0,29.0,78,0.03,,,-99.99,Weather View 32 v70,2013-01-31 07:10:00,
2013-01-31 02:20:00,39.6,33.3,29.21,WSW,251,9.0,29.0,78,0.02,,,-99.99,Weather View 32 v70,2013-01-31 07:20:00,
2013-01-31 02:25:00,39.3,33.0,29.20,SW,228,13.0,29.0,78,0.02,,,-99.99,Weather View 32 v70,2013-01-31 07:25:00,
2013-01-31 02:30:00,39.0,32.7,29.19,West,260,7.0,29.0,78,0.01,,,-99.99,Weather View 32 v70,2013-01-31 07:30:00,
2013-01-31 02:35:00,38.7,32.7,29.19,SW,221,14.0,29.0,79,0.01,,,-99.99,Weather View 32 v70,2013-01-31 07:35:00,
2013-01-31 02:45:00,38.3,32.4,29.19,SW,225,13.0,28.0,79,0.01,,,-99.99,Weather View 32 v70,2013-01-31 07:45:00,
2013-01-31 02:50:00,38.1,32.5,29.21,SW,236,12.0,28.0,80,0.01,,,-99.99,Weather View 32 v70,2013-01-31 07:50:00,
2013-01-31 02:55:00,38.2,32.6,29.21,SW,227,11.0,30.0,80,0.01,,,-99.99,Weather View 32 v70,2013-01-31 07:55:00,
2013-01-31 03:00:00,38.0,32.4,29.20,SW,224,15.0,30.0,80,0.01,,,-99.99,Weather View 32 v70,2013-01-31 08:00:00,
2013-01-31 03:10:00,38.0,32.4,29.20,SW,229,11.0,30.0,80,0.01,,,-99.99,Weather View 32 v70,2013-01-31 08:10:00,
2013-01-31 03:15:00,37.6,32.0,29.20,SW,227,15.0,30.0,80,0.01,,,-99.99,Weather View 32 v70,2013-01-31 08:15:00,
2013-01-31 03:20:00,37.4,31.8,29.18,SW,219,12.0,30.0,80,0.01,,,-99.99,Weather View 32 v70,2013-01-31 08:20:00,
2013-01-31 03:30:00,37.1,31.5,29.19,SW,217,14.0,32.0,80,0.02,,,-99.99,Weather View 32 v70,2013-01-31 08:30:00,
2013-01-31 03:35:00,37.0,31.7,29.19,SW,224,19.0,32.0,81,0.02,,,-99.99,Weather View 32 v70,2013-01-31 08:35:00,
2013-01-31 03:40:00,36.9,31.6,29.19,WSW,241,9.0,32.0,81,0.02,,,-99.99,Weather View 32 v70,2013-01-31 08:40:00,
2013-01-31 03:45:00,36.7,31.4,29.20,SW,224,23.0,32.0,81,0.02,,,-99.99,Weather View 32 v70,2013-01-31 08:45:00,
2013-01-31 03:50:00,36.7,31.4,29.19,WSW,237,10.0,32.0,81,0.02,,,-99.99,Weather View 32 v70,2013-01-31 08:50:00,
2013-01-31 03:55:00,36.7,31.4,29.19,SW,220,9.0,36.0,81,0.02,,,-99.99,Weather View 32 v70,2013-01-31 08:55:00,
2013-01-31 04:05:00,36.7,31.1,29.21,SW,228,23.0,36.0,80,0.01,,,-99.99,Weather View 32 v70,2013-01-31 09:05:00,
2013-01-31 04:10:00,36.7,30.8,29.21,SW,229,14.0,36.0,79,0.01,,,-99.99,Weather View 32 v70,2013-01-31 09:10:00,
2013-01-31 04:15:00,36.7,30.5,29.21,SW,219,22.0,36.0,78,0.01,,,-99.99,Weather View 32 v70,2013-01-31 09:15:00,
2013-01-31 04:25:00,36.6,30.4,29.23,SW,228,17.0,36.0,78,0.01,,,-99.99,Weather View 32 v70,2013-01-31 09:25:00,
2013-01-31 04:30:00,36.6,30.4,29.23,WSW,242,9.0,36.0,78,0.00,,,-99.99,Weather View 32 v70,2013-01-31 09:30:00,
2013-01-31 04:35:00,36.5,30.3,29.23,West,270,12.0,36.0,78,0.00,,,-99.99,Weather View 32 v70,2013-01-31 09:35:00,
2013-01-31 04:40:00,36.4,29.6,29.23,SW,220,9.0,36.0,76,0.00,,,-99.99,Weather View 32 v70,2013-01-31 09:40:00,
2013-01-31 04:50:00,35.8,28.3,29.24,SW,233,14.0,36.0,74,0.00,,,-99.99,Weather View 32 v70,2013-01-31 09:50:00,
2013-01-31 04:55:00,35.5,28.0,29.26,West,266,13.0,36.0,74,0.00,,,-99.99,Weather View 32 v70,2013-01-31 09:55:00,
2013-01-31 05:05:00,34.9,28.7,29.26,West,262,11.0,35.0,78,0.00,,,-99.99,Weather View 32 v70,2013-01-31 10:05:00,
2013-01-31 05:10:00,34.7,28.5,29.27,WSW,238,4.0,35.0,78,0.00,,,-99.99,Weather View 32 v70,2013-01-31 10:10:00,
2013-01-31 05:15:00,34.6,28.1,29.27,West,280,9.0,35.0,77,0.00,,,-99.99,Weather View 32 v70,2013-01-31 10:15:00,
2013-01-31 05:20:00,34.6,27.8,29.27,WSW,251,12.0,35.0,76,0.00,,,-99.99,Weather View 32 v70,2013-01-31 10:20:00,
2013-01-31 05:30:00,34.5,27.4,29.27,WSW,240,14.0,30.0,75,0.00,,,-99.99,Weather View 32 v70,2013-01-31 10:30:00,
2013-01-31 05:35:00,34.3,26.5,29.28,WSW,242,11.0,30.0,73,0.00,,,-99.99,Weather View 32 v70,2013-01-31 10:35:00,
2013-01-31 05:40:00,34.2,26.1,29.28,SW,225,9.0,30.0,72,0.00,,,-99.99,Weather View 32 v70,2013-01-31 10:40:00,
2013-01-31 05:45:00,34.0,25.6,29.28,WNW,282,9.0,30.0,71,0.00,,,-99.99,Weather View 32 v70,2013-01-31 10:45:00,
2013-01-31 05:55:00,33.8,24.7,29.29,West,264,15.0,30.0,69,0.00,,,-99.99,Weather View 32 v70,2013-01-31 10:55:00,
2013-01-31 06:00:00,33.6,24.2,29.29,WSW,257,11.0,30.0,68,0.00,,,-99.99,Weather View 32 v70,2013-01-31 11:00:00,
2013-01-31 06:10:00,33.3,21.7,29.30,WSW,253,15.0,29.0,62,0.00,,,-99.99,Weather View 32 v70,2013-01-31 11:10:00,
2013-01-31 06:20:00,32.9,20.5,29.32,WSW,256,11.0,33.0,60,0.00,,,-99.99,Weather View 32 v70,2013-01-31 11:20:00,
2013-01-31 06:25:00,32.8,21.2,29.32,West,265,7.0,33.0,62,0.00,,,-99.99,Weather View 32 v70,2013-01-31 11:25:00,
2013-01-31 06:30:00,32.6,21.4,29.32,West,260,10.0,33.0,63,0.00,,,-99.99,Weather View 32 v70,2013-01-31 11:30:00,
2013-01-31 06:35:00,32.3,20.3,29.33,WNW,286,13.0,33.0,61,0.00,,,-99.99,Weather View 32 v70,2013-01-31 11:35:00,
2013-01-31 06:40:00,32.2,20.6,29.34,West,264,15.0,33.0,62,0.00,,,-99.99,Weather View 32 v70,2013-01-31 11:40:00,
2013-01-31 06:45:00,32.1,20.2,29.34,WSW,241,6.0,33.0,61,0.00,,,-99.99,Weather View 32 v70,2013-01-31 11:45:00,
2013-01-31 06:55:00,32.0,19.7,29.35,West,268,23.0,33.0,60,0.00,,,-99.99,Weather View 32 v70,2013-01-31 11:55:00,
2013-01-31 07:00:00,31.8,18.7,29.35,SW,220,10.0,33.0,58,0.00,,,-99.99,Weather View 32 v70,2013-01-31 12:00:00,
2013-01-31 07:05:00,31.7,18.6,29.35,WNW,293,16.0,33.0,58,0.00,,,-99.99,Weather View 32 v70,2013-01-31 12:05:00,
2013-01-31 07:15:00,31.3,19.4,29.37,West,265,4.0,33.0,61,0.00,,,-99.99,Weather View 32 v70,2013-01-31 12:15:00,
2013-01-31 07:20:00,31.2,18.9,29.37,West,264,7.0,33.0,60,0.00,,,-99.99,Weather View 32 v70,2013-01-31 12:20:00,
2013-01-31 07:25:00,31.1,18.8,29.37,WSW,237,11.0,33.0,60,0.00,,,-99.99,Weather View 32 v70,2013-01-31 12:25:00,
2013-01-31 07:30:00,30.9,18.6,29.37,West,265,9.0,32.0,60,0.00,,,-99.99,Weather View 32 v70,2013-01-31 12:30:00,
2013-01-31 07:35:00,30.8,17.8,29.37,West,268,20.0,33.0,58,0.00,,,-99.99,Weather View 32 v70,2013-01-31 12:35:00,
2013-01-31 07:45:00,30.8,18.5,29.39,West,266,11.0,33.0,60,0.00,,,-99.99,Weather View 32 v70,2013-01-31 12:45:00,
2013-01-31 07:50:00,29.9,21.0,29.39,West,281,6.0,33.0,69,0.00,,,-99.99,Weather View 32 v70,2013-01-31 12:50:00,
2013-01-31 07:55:00,29.7,17.5,29.38,WSW,255,10.0,33.0,60,0.00,,,-99.99,Weather View 32 v70,2013-01-31 12:55:00,
2013-01-31 08:00:00,30.0,17.0,29.39,West,265,11.0,33.0,58,0.00,,,-99.99,Weather View 32 v70,2013-01-31 13:00:00,
2013-01-31 08:10:00,30.2,16.8,29.40,West,278,6.0,33.0,57,0.00,,,-99.99,Weather View 32 v70,2013-01-31 13:10:00,
2013-01-31 08:15:00,30.2,17.6,29.40,WNW,284,8.0,33.0,59,0.00,,,-99.99,Weather View 32 v70,2013-01-31 13:15:00,
2013-01-31 08:20:00,29.8,18.7,29.41,WSW,254,9.0,33.0,63,0.00,,,-99.99,Weather View 32 v70,2013-01-31 13:20:00,
2013-01-31 08:30:00,29.9,16.5,29.42,WNW,291,15.0,33.0,57,0.00,,,-99.99,Weather View 32 v70,2013-01-31 13:30:00,
2013-01-31 08:35:00,29.9,16.5,29.42,WSW,246,12.0,33.0,57,0.00,,,-99.99,Weather View 32 v70,2013-01-31 13:35:00,
2013-01-31 08:40:00,30.0,16.2,29.43,WNW,292,5.0,33.0,56,0.00,,,-99.99,Weather View 32 v70,2013-01-31 13:40:00,
2013-01-31 08:45:00,29.9,16.5,29.43,WSW,251,16.0,33.0,57,0.00,,,-99.99,Weather View 32 v70,2013-01-31 13:45:00,
2013-01-31 08:50:00,29.7,16.7,29.44,West,278,14.0,34.0,58,0.00,,,-99.99,Weather View 32 v70,2013-01-31 13:50:00,
2013-01-31 09:00:00,29.5,16.1,29.45,West,277,11.0,34.0,57,0.00,,,-99.99,Weather View 32 v70,2013-01-31 14:00:00,
2013-01-31 09:05:00,29.5,15.3,29.46,WSW,239,11.0,34.0,55,0.00,,,-99.99,Weather View 32 v70,2013-01-31 14:05:00,
2013-01-31 09:10:00,29.4,15.2,29.46,West,260,9.0,34.0,55,0.00,,,-99.99,Weather View 32 v70,2013-01-31 14:10:00,
2013-01-31 09:20:00,29.4,13.9,29.46,WSW,253,5.0,34.0,52,0.00,,,-99.99,Weather View 32 v70,2013-01-31 14:20:00,
2013-01-31 09:25:00,29.5,14.9,29.46,WNW,288,15.0,34.0,54,0.00,,,-99.99,Weather View 32 v70,2013-01-31 14:25:00,
2013-01-31 09:30:00,29.6,15.4,29.46,WNW,284,9.0,34.0,55,0.00,,,-99.99,Weather View 32 v70,2013-01-31 14:30:00,
2013-01-31 09:39:00,29.6,14.1,29.47,West,269,19.0,35.0,52,0.00,,,-99.99,Weather View 32 v70,2013-01-31 14:39:00,
2013-01-31 09:45:00,29.6,14.6,29.47,WNW,282,18.0,35.0,53,0.00,,,-99.99,Weather View 32 v70,2013-01-31 14:45:00,
2013-01-31 09:50:00,29.4,16.0,29.47,West,269,7.0,35.0,57,0.00,,,-99.99,Weather View 32 v70,2013-01-31 14:50:00,
2013-01-31 10:00:00,28.9,18.6,29.48,WNW,288,5.0,35.0,65,0.00,,,-99.99,Weather View 32 v70,2013-01-31 15:00:00,
2013-01-31 10:10:00,28.5,20.3,29.49,West,264,9.0,35.0,71,0.00,,,-99.99,Weather View 32 v70,2013-01-31 15:10:00,
2013-01-31 10:15:00,28.2,20.7,29.48,WNW,295,4.0,35.0,73,0.00,,,-99.99,Weather View 32 v70,2013-01-31 15:15:00,
2013-01-31 10:25:00,29.1,19.2,29.49,West,265,16.0,35.0,66,0.00,,,-99.99,Weather View 32 v70,2013-01-31 15:25:00,
2013-01-31 10:30:00,28.9,17.5,29.50,West,268,10.0,35.0,62,0.00,,,-99.99,Weather View 32 v70,2013-01-31 15:30:00,
2013-01-31 10:40:00,29.0,16.8,29.50,West,268,11.0,32.0,60,0.00,,,-99.99,Weather View 32 v70,2013-01-31 15:40:00,
2013-01-31 10:45:00,29.1,14.5,29.50,WNW,298,14.0,32.0,54,0.00,,,-99.99,Weather View 32 v70,2013-01-31 15:45:00,
2013-01-31 10:50:00,29.0,13.6,29.49,WNW,296,12.0,32.0,52,0.00,,,-99.99,Weather View 32 v70,2013-01-31 15:50:00,
2013-01-31 11:00:00,29.2,12.9,29.49,WSW,253,10.0,32.0,50,0.00,,,-99.99,Weather View 32 v70,2013-01-31 16:00:00,
2013-01-31 11:05:00,29.2,11.9,29.49,West,281,15.0,32.0,48,0.00,,,-99.99,Weather View 32 v70,2013-01-31 16:05:00,
2013-01-31 11:10:00,29.4,12.1,29.49,West,264,9.0,32.0,48,0.00,,,-99.99,Weather View 32 v70,2013-01-31 16:10:00,
2013-01-31 11:20:00,29.2,11.5,29.50,West,273,11.0,32.0,47,0.00,,,-99.99,Weather View 32 v70,2013-01-31 16:20:00,
2013-01-31 11:25:00,29.4,12.6,29.50,WNW,293,19.0,32.0,49,0.00,,,-99.99,Weather View 32 v70,2013-01-31 16:25:00,
2013-01-31 11:30:00,29.4,12.1,29.51,West,274,14.0,30.0,48,0.00,,,-99.99,Weather View 32 v70,2013-01-31 16:30:00,
2013-01-31 11:35:00,29.3,12.0,29.50,WNW,285,17.0,30.0,48,0.00,,,-99.99,Weather View 32 v70,2013-01-31 16:35:00,
2013-01-31 11:40:00,29.4,11.6,29.50,WNW,295,16.0,30.0,47,0.00,,,-99.99,Weather View 32 v70,2013-01-31 16:40:00,
2013-01-31 11:50:00,29.5,11.7,29.50,West,280,8.0,30.0,47,0.00,,,-99.99,Weather View 32 v70,2013-01-31 16:50:00,
2013-01-31 11:55:00,29.5,10.8,29.51,West,272,13.0,30.0,45,0.00,,,-99.99,Weather View 32 v70,2013-01-31 16:55:00,
2013-01-31 12:00:00,29.3,12.0,29.50,WNW,288,13.0,30.0,48,0.00,,,-99.99,Weather View 32 v70,2013-01-31 17:00:00,
2013-01-31 12:10:00,29.2,13.3,29.51,WNW,283,8.0,30.0,51,0.00,,,-99.99,Weather View 32 v70,2013-01-31 17:10:00,
2013-01-31 12:15:00,29.3,13.4,29.51,WNW,285,6.0,30.0,51,0.00,,,-99.99,Weather View 32 v70,2013-01-31 17:15:00,
2013-01-31 12:25:00,29.5,13.6,29.52,WNW,284,9.0,30.0,51,0.00,,,-99.99,Weather View 32 v70,2013-01-31 17:25:00,
2013-01-31 12:30:00,29.1,13.2,29.52,WSW,257,4.0,30.0,51,0.00,,,-99.99,Weather View 32 v70,2013-01-31 17:30:00,
2013-01-31 12:35:00,28.8,13.4,29.53,West,273,16.0,30.0,52,0.00,,,-99.99,Weather View 32 v70,2013-01-31 17:35:00,
2013-01-31 12:40:00,28.8,12.9,29.53,West,271,15.0,30.0,51,0.00,,,-99.99,Weather View 32 v70,2013-01-31 17:40:00,
2013-01-31 12:50:00,29.4,12.1,29.53,West,278,8.0,30.0,48,0.00,,,-99.99,Weather View 32 v70,2013-01-31 17:50:00,
2013-01-31 12:55:00,29.1,14.5,29.54,West,278,8.0,30.0,54,0.00,,,-99.99,Weather View 32 v70,2013-01-31 17:55:00,
2013-01-31 13:00:00,28.7,15.8,29.54,WSW,258,14.0,30.0,58,0.00,,,-99.99,Weather View 32 v70,2013-01-31 18:00:00,
2013-01-31 13:10:00,28.3,14.2,29.54,West,275,10.0,32.0,55,0.00,,,-99.99,Weather View 32 v70,2013-01-31 18:10:00,
2013-01-31 13:15:00,28.4,13.4,29.54,WNW,284,15.0,32.0,53,0.00,,,-99.99,Weather View 32 v70,2013-01-31 18:15:00,
2013-01-31 13:20:00,28.5,12.7,29.54,West,273,18.0,32.0,51,0.00,,,-99.99,Weather View 32 v70,2013-01-31 18:20:00,
2013-01-31 13:30:00,28.4,12.6,29.54,West,279,12.0,32.0,51,0.00,,,-99.99,Weather View 32 v70,2013-01-31 18:30:00,
2013-01-31 13:35:00,28.4,12.1,29.54,WNW,288,13.0,32.0,50,0.00,,,-99.99,Weather View 32 v70,2013-01-31 18:35:00,
2013-01-31 13:40:00,28.5,11.8,29.55,WNW,289,10.0,32.0,49,0.00,,,-99.99,Weather View 32 v70,2013-01-31 18:40:00,
2013-01-31 13:45:00,28.5,12.2,29.55,West,261,6.0,32.0,50,0.00,,,-99.99,Weather View 32 v70,2013-01-31 18:45:00,
2013-01-31 13:55:00,27.6,10.9,29.56,West,268,13.0,32.0,49,0.00,,,-99.99,Weather View 32 v70,2013-01-31 18:55:00,
2013-01-31 14:00:00,27.6,10.9,29.56,West,277,11.0,32.0,49,0.00,,,-99.99,Weather View 32 v70,2013-01-31 19:00:00,
2013-01-31 14:05:00,28.0,11.7,29.56,West,277,5.0,31.0,50,0.00,,,-99.99,Weather View 32 v70,2013-01-31 19:05:00,
2013-01-31 14:15:00,28.3,11.1,29.56,West,266,9.0,31.0,48,0.00,,,-99.99,Weather View 32 v70,2013-01-31 19:15:00,
2013-01-31 14:20:00,28.3,10.6,29.56,WNW,295,8.0,31.0,47,0.00,,,-99.99,Weather View 32 v70,2013-01-31 19:20:00,
2013-01-31 14:25:00,28.2,11.0,29.56,WNW,293,13.0,31.0,48,0.00,,,-99.99,Weather View 32 v70,2013-01-31 19:25:00,
2013-01-31 14:30:00,28.4,11.7,29.57,WSW,258,8.0,30.0,49,0.00,,,-99.99,Weather View 32 v70,2013-01-31 19:30:00,
2013-01-31 14:40:00,28.6,11.8,29.57,West,280,13.0,30.0,49,0.00,,,-99.99,Weather View 32 v70,2013-01-31 19:40:00,
2013-01-31 14:45:00,28.4,11.2,29.57,West,264,7.0,30.0,48,0.00,,,-99.99,Weather View 32 v70,2013-01-31 19:45:00,
2013-01-31 14:50:00,28.1,10.9,29.58,West,273,26.0,30.0,48,0.00,,,-99.99,Weather View 32 v70,2013-01-31 19:50:00,
2013-01-31 15:00:00,27.8,11.6,29.58,West,274,12.0,30.0,50,0.00,,,-99.99,Weather View 32 v70,2013-01-31 20:00:00,
2013-01-31 15:05:00,27.7,11.0,29.59,West,271,13.0,30.0,49,0.00,,,-99.99,Weather View 32 v70,2013-01-31 20:05:00,
2013-01-31 15:10:00,27.8,11.1,29.59,WNW,292,10.0,30.0,49,0.00,,,-99.99,Weather View 32 v70,2013-01-31 20:10:00,
2013-01-31 15:15:00,27.8,12.0,29.59,WNW,291,10.0,30.0,51,0.00,,,-99.99,Weather View 32 v70,2013-01-31 20:15:00,
2013-01-31 15:25:00,28.0,12.6,29.59,WNW,299,13.0,27.0,52,0.00,,,-99.99,Weather View 32 v70,2013-01-31 20:25:00,
2013-01-31 15:30:00,27.8,12.4,29.60,WNW,294,6.0,27.0,52,0.00,,,-99.99,Weather View 32 v70,2013-01-31 20:30:00,
2013-01-31 15:40:00,27.9,12.5,29.60,West,274,7.0,27.0,52,0.00,,,-99.99,Weather View 32 v70,2013-01-31 20:40:00,
2013-01-31 15:45:00,27.9,13.0,29.61,West,261,11.0,27.0,53,0.00,,,-99.99,Weather View 32 v70,2013-01-31 20:45:00,
2013-01-31 15:50:00,27.7,13.2,29.61,West,271,6.0,27.0,54,0.00,,,-99.99,Weather View 32 v70,2013-01-31 20:50:00,
2013-01-31 16:00:00,27.2,14.0,29.62,WNW,299,14.0,27.0,57,0.00,,,-99.99,Weather View 32 v70,2013-01-31 21:00:00,
2013-01-31 16:05:00,27.0,14.2,29.62,West,269,8.0,27.0,58,0.00,,,-99.99,Weather View 32 v70,2013-01-31 21:05:00,
2013-01-31 16:10:00,26.8,14.0,29.62,WSW,250,10.0,25.0,58,0.00,,,-99.99,Weather View 32 v70,2013-01-31 21:10:00,
2013-01-31 16:20:00,26.4,15.9,29.62,WNW,292,18.0,29.0,64,0.00,,,-99.99,Weather View 32 v70,2013-01-31 21:20:00,
2013-01-31 16:25:00,26.2,16.0,29.62,WNW,286,5.0,29.0,65,0.00,,,-99.99,Weather View 32 v70,2013-01-31 21:25:00,
2013-01-31 16:30:00,26.4,15.9,29.62,WNW,292,8.0,29.0,64,0.00,,,-99.99,Weather View 32 v70,2013-01-31 21:30:00,
2013-01-31 16:40:00,26.1,17.3,29.63,West,277,10.0,29.0,69,0.00,,,-99.99,Weather View 32 v70,2013-01-31 21:40:00,
2013-01-31 16:45:00,25.6,18.8,29.63,WNW,289,17.0,29.0,75,0.00,,,-99.99,Weather View 32 v70,2013-01-31 21:45:00,
2013-01-31 16:50:00,25.5,18.7,29.63,West,270,3.0,29.0,75,0.00,,,-99.99,Weather View 32 v70,2013-01-31 21:50:00,
2013-01-31 16:55:00,25.7,16.9,29.63,WNW,296,11.0,29.0,69,0.00,,,-99.99,Weather View 32 v70,2013-01-31 21:55:00,
2013-01-31 17:05:00,25.6,16.2,29.65,West,269,8.0,29.0,67,0.00,,,-99.99,Weather View 32 v70,2013-01-31 22:05:00,
2013-01-31 17:10:00,25.7,16.3,29.64,West,277,7.0,29.0,67,0.00,,,-99.99,Weather View 32 v70,2013-01-31 22:10:00,
2013-01-31 17:15:00,25.9,16.8,29.65,WSW,254,14.0,29.0,68,0.00,,,-99.99,Weather View 32 v70,2013-01-31 22:15:00,
2013-01-31 17:25:00,25.7,15.9,29.65,West,270,15.0,28.0,66,0.00,,,-99.99,Weather View 32 v70,2013-01-31 22:25:00,
2013-01-31 17:30:00,25.8,16.0,29.65,West,265,6.0,28.0,66,0.00,,,-99.99,Weather View 32 v70,2013-01-31 22:30:00,
2013-01-31 17:35:00,25.7,17.3,29.65,West,269,7.0,28.0,70,0.00,,,-99.99,Weather View 32 v70,2013-01-31 22:35:00,
2013-01-31 17:40:00,25.6,18.1,29.65,West,265,5.0,28.0,73,0.00,,,-99.99,Weather View 32 v70,2013-01-31 22:40:00,
2013-01-31 17:50:00,25.4,18.3,29.67,WSW,243,17.0,28.0,74,0.00,,,-99.99,Weather View 32 v70,2013-01-31 22:50:00,
2013-01-31 17:55:00,24.4,18.5,29.67,West,267,9.0,32.0,78,0.00,,,-99.99,Weather View 32 v70,2013-01-31 22:55:00,
2013-01-31 18:05:00,24.7,18.5,29.67,WNW,295,11.0,32.0,77,0.00,,,-99.99,Weather View 32 v70,2013-01-31 23:05:00,
2013-01-31 18:10:00,24.8,17.1,29.67,WNW,283,2.0,32.0,72,0.00,,,-99.99,Weather View 32 v70,2013-01-31 23:10:00,
2013-01-31 18:15:00,24.9,16.2,29.68,WSW,254,14.0,32.0,69,0.00,,,-99.99,Weather View 32 v70,2013-01-31 23:15:00,
2013-01-31 18:20:00,25.1,14.6,29.68,WNW,292,14.0,32.0,64,0.00,,,-99.99,Weather View 32 v70,2013-01-31 23:20:00,
2013-01-31 18:30:00,25.5,14.3,29.68,WNW,283,11.0,32.0,62,0.00,,,-99.99,Weather View 32 v70,2013-01-31 23:30:00,
2013-01-31 18:35:00,25.1,13.9,29.68,West,275,10.0,32.0,62,0.00,,,-99.99,Weather View 32 v70,2013-01-31 23:35:00,
2013-01-31 18:40:00,25.0,13.1,29.69,WNW,295,8.0,32.0,60,0.00,,,-99.99,Weather View 32 v70,2013-01-31 23:40:00,
2013-01-31 18:45:00,24.9,11.4,29.69,WNW,289,11.0,32.0,56,0.00,,,-99.99,Weather View 32 v70,2013-01-31 23:45:00,
2013-01-31 18:55:00,24.3,16.6,29.70,West,279,13.0,27.0,72,0.00,,,-99.99,Weather View 32 v70,2013-01-31 23:55:00,
2013-01-31 19:00:00,23.7,17.5,29.69,WNW,282,9.0,27.0,77,0.00,,,-99.99,Weather View 32 v70,2013-02-01 00:00:00,
2013-01-31 19:05:00,23.3,18.0,29.70,WNW,300,20.0,27.0,80,0.00,,,-99.99,Weather View 32 v70,2013-02-01 00:05:00,
2013-01-31 19:10:00,23.3,18.3,29.70,West,261,6.0,27.0,81,0.00,,,-99.99,Weather View 32 v70,2013-02-01 00:10:00,
2013-01-31 19:20:00,23.8,18.5,29.69,West,272,6.0,27.0,80,0.00,,,-99.99,Weather View 32 v70,2013-02-01 00:20:00,
2013-01-31 19:25:00,24.0,18.1,29.69,West,273,4.0,27.0,78,0.00,,,-99.99,Weather View 32 v70,2013-02-01 00:25:00,
2013-01-31 19:30:00,24.2,18.0,29.70,WNW,286,4.0,27.0,77,0.00,,,-99.99,Weather View 32 v70,2013-02-01 00:30:00,
2013-01-31 19:35:00,24.0,18.1,29.70,WNW,282,4.0,27.0,78,0.00,,,-99.99,Weather View 32 v70,2013-02-01 00:35:00,
2013-01-31 19:45:00,23.9,18.0,29.70,WNW,287,5.0,27.0,78,0.00,,,-99.99,Weather View 32 v70,2013-02-01 00:45:00,
2013-01-31 19:50:00,22.9,17.7,29.71,WNW,293,3.0,27.0,80,0.00,,,-99.99,Weather View 32 v70,2013-02-01 00:50:00,
2013-01-31 20:00:00,22.7,18.0,29.71,WSW,253,4.0,26.0,82,0.00,,,-99.99,Weather View 32 v70,2013-02-01 01:00:00,
2013-01-31 20:05:00,22.9,17.9,29.71,West,278,8.0,22.0,81,0.00,,,-99.99,Weather View 32 v70,2013-02-01 01:05:00,
2013-01-31 20:10:00,23.2,17.9,29.72,WNW,283,8.0,22.0,80,0.00,,,-99.99,Weather View 32 v70,2013-02-01 01:10:00,
2013-01-31 20:15:00,23.4,17.9,29.71,West,275,6.0,22.0,79,0.00,,,-99.99,Weather View 32 v70,2013-02-01 01:15:00,
2013-01-31 20:25:00,23.3,17.5,29.72,WNW,286,11.0,22.0,78,0.00,,,-99.99,Weather View 32 v70,2013-02-01 01:25:00,
2013-01-31 20:30:00,23.4,17.3,29.72,WNW,282,4.0,22.0,77,0.00,,,-99.99,Weather View 32 v70,2013-02-01 01:30:00,
2013-01-31 20:35:00,23.4,17.6,29.72,NW,310,5.0,22.0,78,0.00,,,-99.99,Weather View 32 v70,2013-02-01 01:35:00,
2013-01-31 20:46:00,23.3,16.2,29.72,WNW,292,6.0,26.0,74,0.00,,,-99.99,Weather View 32 v70,2013-02-01 01:46:00,
2013-01-31 20:55:00,23.3,15.9,29.72,WNW,293,6.0,26.0,73,0.00,,,-99.99,Weather View 32 v70,2013-02-01 01:55:00,
2013-01-31 21:00:00,23.3,15.3,29.72,West,278,5.0,27.0,71,0.00,,,-99.99,Weather View 32 v70,2013-02-01 02:00:00,
2013-01-31 21:10:00,23.0,13.3,29.72,West,281,9.0,27.0,66,0.00,,,-99.99,Weather View 32 v70,2013-02-01 02:10:00,
2013-01-31 21:15:00,23.1,13.1,29.73,NW,306,14.0,27.0,65,0.00,,,-99.99,Weather View 32 v70,2013-02-01 02:15:00,
2013-01-31 21:20:00,23.1,12.4,29.73,West,280,8.0,27.0,63,0.00,,,-99.99,Weather View 32 v70,2013-02-01 02:20:00,
2013-01-31 21:30:00,23.1,10.1,29.73,WNW,286,7.0,27.0,57,0.00,,,-99.99,Weather View 32 v70,2013-02-01 02:30:00,
2013-01-31 21:35:00,23.1,9.7,29.73,WNW,288,12.0,27.0,56,0.00,,,-99.99,Weather View 32 v70,2013-02-01 02:35:00,
2013-01-31 21:45:00,23.1,9.3,29.73,WNW,294,9.0,27.0,55,0.00,,,-99.99,Weather View 32 v70,2013-02-01 02:45:00,
2013-01-31 21:50:00,23.2,9.0,29.73,WNW,294,5.0,27.0,54,0.00,,,-99.99,Weather View 32 v70,2013-02-01 02:50:00,
2013-01-31 21:55:00,23.2,9.8,29.74,WNW,292,5.0,27.0,56,0.00,,,-99.99,Weather View 32 v70,2013-02-01 02:55:00,
2013-01-31 22:05:00,23.2,9.0,29.74,WNW,288,9.0,24.0,54,0.00,,,-99.99,Weather View 32 v70,2013-02-01 03:05:00,
2013-01-31 22:10:00,23.1,8.9,29.74,West,264,11.0,20.0,54,0.00,,,-99.99,Weather View 32 v70,2013-02-01 03:10:00,
2013-01-31 22:20:00,22.9,8.7,29.74,West,267,11.0,19.0,54,0.00,,,-99.99,Weather View 32 v70,2013-02-01 03:20:00,
2013-01-31 22:25:00,23.0,9.2,29.75,West,281,6.0,21.0,55,0.00,,,-99.99,Weather View 32 v70,2013-02-01 03:25:00,
2013-01-31 22:30:00,22.9,8.7,29.75,West,270,8.0,21.0,54,0.00,,,-99.99,Weather View 32 v70,2013-02-01 03:30:00,
2013-01-31 22:40:00,22.9,9.5,29.75,West,268,13.0,21.0,56,0.00,,,-99.99,Weather View 32 v70,2013-02-01 03:40:00,
2013-01-31 22:45:00,23.0,9.6,29.75,West,271,5.0,21.0,56,0.00,,,-99.99,Weather View 32 v70,2013-02-01 03:45:00,
2013-01-31 22:50:00,23.1,10.1,29.75,WNW,282,7.0,21.0,57,0.00,,,-99.99,Weather View 32 v70,2013-02-01 03:50:00,
2013-01-31 22:55:00,23.0,9.2,29.75,West,268,7.0,21.0,55,0.00,,,-99.99,Weather View 32 v70,2013-02-01 03:55:00,
2013-01-31 23:05:00,22.8,7.8,29.75,WNW,297,9.0,21.0,52,0.00,,,-99.99,Weather View 32 v70,2013-02-01 04:05:00,
2013-01-31 23:10:00,22.8,7.8,29.75,WNW,301,11.0,21.0,52,0.00,,,-99.99,Weather View 32 v70,2013-02-01 04:10:00,
2013-01-31 23:20:00,22.8,8.6,29.75,NW,305,4.0,21.0,54,0.00,,,-99.99,Weather View 32 v70,2013-02-01 04:20:00,
2013-01-31 23:25:00,22.8,8.2,29.75,West,273,6.0,21.0,53,0.00,,,-99.99,Weather View 32 v70,2013-02-01 04:25:00,
2013-01-31 23:30:00,22.8,8.2,29.75,WNW,289,12.0,21.0,53,0.00,,,-99.99,Weather View 32 v70,2013-02-01 04:30:00,
2013-01-31 23:35:00,22.6,7.6,29.75,NW,305,12.0,21.0,52,0.00,,,-99.99,Weather View 32 v70,2013-02-01 04:35:00,
2013-01-31 23:45:00,22.5,8.4,29.76,West,281,7.0,22.0,54,0.00,,,-99.99,Weather View 32 v70,2013-02-01 04:45:00,
2013-01-31 23:50:00,22.4,8.3,29.76,WNW,302,14.0,22.0,54,0.00,,,-99.99,Weather View 32 v70,2013-02-01 04:50:00,
2013-01-31 23:55:00,22.5,8.4,29.75,West,281,13.0,22.0,54,0.00,,,-99.99,Weather View 32 v70,2013-02-01 04:55:00,